This demonstration page uses our WeatherBlox Daily Observations layout. Learn more.

Left ArrowRight Arrow

41.86663, -103.66717

Hourly Observations for October 14, 2018

Temp ( °F °C ) Dew Point ( °F °C ) Humidity (%) Winds ( mph kmh ) Pressure ( in mb ) Visibility ( mi km ) Precip ( " mm )
12:07 am 00:07 Cloudy with Light Snow 27 -2.8 26 -3.3 96 96 N 14 22 30.30 1026 1 2 0.00 0.03
12:24 am 00:24 Mostly Cloudy with Light Snow 27 -2.8 27 -2.8 100 100 N 9 15 30.30 1026 1 2 0.00 0.03
12:39 am 00:39 Cloudy with Light Snow 27 -2.8 26 -3.3 96 96 NNW 14 22 30.30 1026 2 2 0.01 0.25
12:53 am 00:53 Cloudy with Light Snow 27 -2.8 25 -3.9 92 92 N 15 24 30.16 1021 2 3 0.01 0.25
1:21 am 01:21 Cloudy with Light Snow 26 -3.3 24 -4.4 92 92 NNW 10 17 30.30 1026 3 5 0.00 0.03
1:39 am 01:39 Cloudy with Light Snow 26 -3.3 24 -4.4 92 92 NNW 9 15 30.33 1027 3 4 0.00 0.03
1:48 am 01:48 Cloudy with Light Snow 27 -3 25 -4 93 93 NW 8 13 30.33 1027 2 3 0.00 0.00
1:53 am 01:53 Cloudy with Light Snow 26 -3.3 25 -3.9 96 96 NW 8 13 30.20 1023 2 3 0.00 0.03
2:02 am 02:02 Cloudy with Light Snow 25 -4 25 -4 100 100 NNW 9 15 30.36 1028 2 3 0.00 0.00
2:09 am 02:09 Cloudy with Light Snow 25 -3.9 24 -4.4 96 96 NNW 10 17 30.36 1028 3 4 0.01 0.25
2:20 am 02:20 Cloudy with Light Snow 25 -4 25 -4 100 100 NNW 8 13 30.36 1028 3 5 0.00 0.00
2:34 am 02:34 Cloudy with Light Snow 25 -4 25 -4 100 100 NW 9 15 30.36 1028 4 6 0.00 0.00
2:53 am 02:53 Cloudy with Light Snow 25 -3.9 23 -5 92 92 NW 10 17 30.23 1024 9 14 0.01 0.25
3:13 am 03:13 Cloudy 25 -3.9 22 -5.6 88 88 NNW 14 22 30.39 1029 10 16 0.00 0.03
3:20 am 03:20 Cloudy 25 -4 21 -6 86 86 NNW 12 19 30.39 1029 10 16 0.00 0.00
3:48 am 03:48 Cloudy 25 -4 21 -6 86 86 NW 10 17 30.39 1029 10 16 0.00 0.00
3:53 am 03:53 Cloudy 25 -3.9 22 -5.6 88 88 NW 12 19 30.24 1024 10 16 0.00 0.03
4:43 am 04:43 Cloudy 23 -5 20 -6.7 88 88 NW 13 20 30.39 1029 10 16 0.00 0.00
4:53 am 04:53 Cloudy 23 -5 19 -7.2 85 85 NW 13 20 30.28 1025 10 16 0.00 0.00
5:27 am 05:27 Mostly Cloudy 22 -5.6 19 -7.2 89 89 NW 13 20 30.42 1030 10 16 0.00 0.00
5:45 am 05:45 Cloudy 20 -6.7 18 -7.8 92 92 WNW 7 11 30.42 1030 10 16 0.00 0.00
5:53 am 05:53 Cloudy 19 -7.2 18 -7.8 96 96 WNW 8 13 30.32 1027 10 16 0.00 0.00
6:53 am 06:53 Clear 16 -8.9 14 -10 92 92 NW 12 19 30.35 1028 10 16 0.00 0.00
7:53 am 07:53 Sunny 15 -9.4 13 -10.6 91 91 WNW 10 17 30.38 1029 10 16 0.00 0.00
8:53 am 08:53 Sunny 20 -6.7 17 -8.3 89 89 NW 10 17 30.38 1029 10 16 0.00 0.03
9:53 am 09:53 Sunny 24 -4.4 19 -7.2 81 81 NW 14 22 30.39 1029 10 16 0.00 0.00
10:53 am 10:53 Partly Cloudy 28 -2.2 20 -6.7 72 72 NW 13 20 30.38 1029 10 16 0.00 0.00
11:53 am 11:53 Cloudy with Light Wintry Mix 29 -1.7 20 -6.7 69 69 NNW 13 20 30.38 1029 10 16 0.00 0.03
12:53 pm 12:53 Cloudy with Light Wintry Mix 30 -1.1 19 -7.2 64 64 NNW 17 28 30.37 1028 10 16 0.00 0.03
1:53 pm 13:53 Cloudy 30 -1.1 20 -6.7 66 66 NNW 14 22 30.36 1028 10 16 0.00 0.03
2:53 pm 14:53 Cloudy 31 -0.6 22 -5.6 69 69 NNW 16 26 30.35 1028 10 16 0.00 0.00
3:53 pm 15:53 Mostly Cloudy 31 -0.6 22 -5.6 69 69 NNW 13 20 30.36 1028 10 16 0.00 0.00
4:53 pm 16:53 Sunny 30 -1.1 20 -6.7 66 66 NNW 15 24 30.37 1028 10 16 0.00 0.00
5:53 pm 17:53 Mostly Cloudy 26 -3.3 19 -7.2 75 75 NNW 9 15 30.41 1030 10 16 0.00 0.00
6:53 pm 18:53 Mostly Clear 23 -5 18 -7.8 81 81 NW 6 9 30.44 1031 10 16 0.00 0.00
7:53 pm 19:53 Clear 20 -6.7 16 -8.9 85 85 NW 3 6 30.48 1032 10 16 0.00 0.00
8:53 pm 20:53 Clear 20 -6.7 18 -7.8 92 92 Calm 30.48 1032 10 16 0.00 0.00
9:53 pm 21:53 Clear 16 -8.9 15 -9.4 96 96 Calm 30.48 1032 10 16 0.00 0.00
10:53 pm 22:53 Clear 15 -9.4 13 -10.6 91 91 N 3 6 30.48 1032 10 16 0.00 0.00
11:53 pm 23:53 Clear 11 -11.7 10 -12.2 96 96 NW 8 13 30.49 1033 10 16 0.00 0.00

Powered by AerisWeather